• In Österreich
  • Länderverzeichnis
  • Für 7 Tage
  • Wassertemperatur
  • Satellitenkarten
  • Wetterkarte
  • News
  • Widgets
  • user-avatar
    Anmelden

    Stündliche Wetter Chymbarivka

    Heute, 22 Juni, Freitag

    Zeit Temperatur Niederschläge Wind Luftdruck Luftfeuchtigkeit
    00:00 +20°C° 0,1 mm 2 m/S 732 mmHg 87%
    01:00 +20°C° 0,1 mm 2 m/S 732 mmHg 88%
    02:00 +19°C° 0,1 mm 2 m/S 731 mmHg 89%
    03:00 +19°C° 0,4 mm 2 m/S 731 mmHg 89%
    04:00 +20°C° 0,4 mm 1 m/S 731 mmHg 90%
    05:00 +20°C° 0,4 mm 1 m/S 731 mmHg 90%
    06:00 +20°C° 0,3 mm 2 m/S 731 mmHg 88%
    07:00 +21°C° 0,3 mm 3 m/S 731 mmHg 86%
    08:00 +22°C° 0,3 mm 4 m/S 732 mmHg 84%
    09:00 +21°C° 0,5 mm 5 m/S 732 mmHg 84%
    10:00 +21°C° 0,5 mm 6 m/S 732 mmHg 84%
    11:00 +20°C° 0,5 mm 7 m/S 732 mmHg 84%
    12:00 +19°C° 0 mm 6 m/S 732 mmHg 83%
    13:00 +19°C° 0 mm 6 m/S 732 mmHg 81%
    14:00 +17°C° 0 mm 6 m/S 732 mmHg 80%
    15:00 +17°C° 0 mm 6 m/S 732 mmHg 79%
    16:00 +19°C° 0 mm 5 m/S 732 mmHg 78%
    17:00 +19°C° 0 mm 5 m/S 732 mmHg 77%
    18:00 +17°C° 0 mm 5 m/S 732 mmHg 78%
    19:00 +16°C° 0 mm 5 m/S 732 mmHg 78%
    20:00 +15°C° 0 mm 5 m/S 733 mmHg 79%
    21:00 +14°C° 0,3 mm 5 m/S 733 mmHg 81%
    22:00 +13°C° 0,3 mm 5 m/S 733 mmHg 83%
    23:00 +13°C° 0,3 mm 6 m/S 733 mmHg 85%

    Morgen, 23 Juni, Samstag

    Zeit Temperatur Niederschläge Wind Luftdruck Luftfeuchtigkeit
    00:00 +11°C° 0,8 mm 6 m/S 733 mmHg 87%
    01:00 +11°C° 0,8 mm 6 m/S 733 mmHg 90%
    02:00 +10°C° 0,8 mm 6 m/S 732 mmHg 92%
    03:00 +10°C° 0,7 mm 6 m/S 733 mmHg 92%
    04:00 +9°C° 0,7 mm 6 m/S 733 mmHg 92%
    05:00 +9°C° 0,7 mm 6 m/S 733 mmHg 92%
    06:00 +9°C° 0,4 mm 6 m/S 733 mmHg 91%
    07:00 +9°C° 0,4 mm 6 m/S 733 mmHg 91%
    08:00 +9°C° 0,4 mm 6 m/S 733 mmHg 91%
    09:00 +10°C° 0,3 mm 5 m/S 733 mmHg 88%
    10:00 +10°C° 0,3 mm 5 m/S 733 mmHg 86%
    11:00 +12°C° 0,3 mm 5 m/S 733 mmHg 83%
    12:00 +13°C° 0,1 mm 5 m/S 733 mmHg 78%
    13:00 +14°C° 0,1 mm 4 m/S 733 mmHg 72%
    14:00 +17°C° 0,1 mm 4 m/S 733 mmHg 66%
    15:00 +17°C° 0,5 mm 4 m/S 733 mmHg 68%
    16:00 +15°C° 0,5 mm 4 m/S 733 mmHg 70%
    17:00 +15°C° 0,5 mm 5 m/S 733 mmHg 73%
    18:00 +14°C° 0,4 mm 4 m/S 733 mmHg 77%
    19:00 +13°C° 0,4 mm 4 m/S 733 mmHg 82%
    20:00 +12°C° 0,4 mm 3 m/S 733 mmHg 86%
    21:00 +11°C° 0 mm 3 m/S 733 mmHg 88%
    22:00 +11°C° 0 mm 3 m/S 734 mmHg 90%
    23:00 +10°C° 0 mm 4 m/S 734 mmHg 92%

    übermorgen, 24 Juni, Sonntag

    Zeit Temperatur Niederschläge Wind Luftdruck Luftfeuchtigkeit
    00:00 +8°C° 0 mm 4 m/S 734 mmHg 92%
    01:00 +8°C° 0 mm 4 m/S 734 mmHg 93%
    02:00 +8°C° 0 mm 4 m/S 734 mmHg 93%
    03:00 +8°C° 0 mm 4 m/S 734 mmHg 94%
    04:00 +8°C° 0 mm 3 m/S 734 mmHg 95%
    05:00 +8°C° 0 mm 3 m/S 734 mmHg 95%
    06:00 +10°C° 0 mm 3 m/S 735 mmHg 89%
    07:00 +11°C° 0 mm 4 m/S 735 mmHg 83%
    08:00 +13°C° 0 mm 4 m/S 735 mmHg 77%
    09:00 +14°C° 0,1 mm 4 m/S 736 mmHg 73%
    10:00 +15°C° 0,1 mm 4 m/S 736 mmHg 68%
    11:00 +17°C° 0,1 mm 4 m/S 736 mmHg 64%
    12:00 +18°C° 0,2 mm 4 m/S 736 mmHg 63%
    13:00 +18°C° 0,2 mm 4 m/S 736 mmHg 62%
    14:00 +19°C° 0,2 mm 4 m/S 735 mmHg 61%
    15:00 +19°C° 0,1 mm 3 m/S 735 mmHg 61%
    16:00 +19°C° 0,1 mm 3 m/S 735 mmHg 61%
    17:00 +19°C° 0,1 mm 2 m/S 735 mmHg 62%
    18:00 +18°C° 0,2 mm 2 m/S 735 mmHg 68%
    19:00 +16°C° 0,2 mm 2 m/S 736 mmHg 74%
    20:00 +15°C° 0,2 mm 1 m/S 736 mmHg 80%
    21:00 +14°C° 0,1 mm 1 m/S 736 mmHg 82%
    22:00 +14°C° 0,1 mm 1 m/S 736 mmHg 85%
    23:00 +13°C° 0,1 mm 1 m/S 737 mmHg 87%

    25 Juni, Montag

    Zeit Temperatur Niederschläge Wind Luftdruck Luftfeuchtigkeit
    00:00 +12°C° 0 mm 1 m/S 737 mmHg 88%
    01:00 +12°C° 0 mm 1 m/S 737 mmHg 89%
    02:00 +10°C° 0 mm 0 m/S 737 mmHg 90%
    03:00 +11°C° 0 mm 1 m/S 737 mmHg 90%
    04:00 +11°C° 0 mm 1 m/S 737 mmHg 90%
    05:00 +11°C° 0 mm 1 m/S 737 mmHg 90%
    06:00 +13°C° 0 mm 1 m/S 737 mmHg 85%
    07:00 +15°C° 0 mm 1 m/S 737 mmHg 80%
    08:00 +16°C° 0 mm 1 m/S 738 mmHg 74%
    09:00 +19°C° 0,2 mm 1 m/S 738 mmHg 69%
    10:00 +20°C° 0,2 mm 1 m/S 738 mmHg 64%
    11:00 +22°C° 0,2 mm 1 m/S 738 mmHg 59%
    12:00 +22°C° 0 mm 1 m/S 738 mmHg 56%
    13:00 +23°C° 0 mm 1 m/S 738 mmHg 54%
    14:00 +23°C° 0 mm 1 m/S 738 mmHg 52%
    15:00 +23°C° 0,1 mm 1 m/S 738 mmHg 53%
    16:00 +23°C° 0,1 mm 1 m/S 738 mmHg 55%
    17:00 +23°C° 0,1 mm 1 m/S 738 mmHg 57%
    18:00 +21°C° 0,4 mm 1 m/S 738 mmHg 63%
    19:00 +20°C° 0,4 mm 1 m/S 738 mmHg 70%
    20:00 +18°C° 0,4 mm 1 m/S 738 mmHg 77%
    21:00 +18°C° 0,1 mm 1 m/S 738 mmHg 79%
    22:00 +16°C° 0,1 mm 1 m/S 738 mmHg 81%
    23:00 +15°C° 0,1 mm 1 m/S 738 mmHg 83%

    26 Juni, Dienstag

    Zeit Temperatur Niederschläge Wind Luftdruck Luftfeuchtigkeit
    00:00 +15°C° 0,1 mm 1 m/S 738 mmHg 84%
    01:00 +15°C° 0,1 mm 1 m/S 738 mmHg 85%
    02:00 +15°C° 0,1 mm 1 m/S 738 mmHg 86%
    03:00 +15°C° 0 mm 1 m/S 738 mmHg 87%
    04:00 +14°C° 0 mm 1 m/S 738 mmHg 87%
    05:00 +14°C° 0 mm 1 m/S 738 mmHg 88%
    06:00 +16°C° 0,1 mm 2 m/S 738 mmHg 85%
    07:00 +17°C° 0,1 mm 2 m/S 738 mmHg 81%
    08:00 +18°C° 0,1 mm 2 m/S 739 mmHg 78%
    09:00 +19°C° 0,6 mm 2 m/S 738 mmHg 73%
    10:00 +20°C° 0,6 mm 2 m/S 738 mmHg 69%
    11:00 +21°C° 0,6 mm 2 m/S 738 mmHg 65%
    12:00 +23°C° 0,7 mm 2 m/S 738 mmHg 63%
    13:00 +23°C° 0,7 mm 1 m/S 737 mmHg 61%
    14:00 +24°C° 0,7 mm 1 m/S 737 mmHg 60%
    15:00 +24°C° 0,5 mm 1 m/S 737 mmHg 61%
    16:00 +24°C° 0,5 mm 2 m/S 737 mmHg 63%
    17:00 +24°C° 0,5 mm 2 m/S 737 mmHg 64%
    18:00 +21°C° 0,4 mm 2 m/S 737 mmHg 70%
    19:00 +20°C° 0,4 mm 2 m/S 737 mmHg 76%
    20:00 +18°C° 0,4 mm 2 m/S 736 mmHg 83%
    21:00 +18°C° 0 mm 2 m/S 736 mmHg 84%
    22:00 +17°C° 0 mm 2 m/S 736 mmHg 86%
    23:00 +16°C° 0 mm 2 m/S 736 mmHg 87%

    27 Juni, Mittwoch

    Zeit Temperatur Niederschläge Wind Luftdruck Luftfeuchtigkeit
    00:00 +16°C° 0 mm 2 m/S 736 mmHg 88%
    01:00 +15°C° 0 mm 2 m/S 736 mmHg 89%
    02:00 +15°C° 0 mm 2 m/S 736 mmHg 90%
    03:00 +15°C° 0 mm 2 m/S 736 mmHg 91%
    04:00 +15°C° 0 mm 2 m/S 735 mmHg 91%
    05:00 +15°C° 0 mm 2 m/S 735 mmHg 92%
    06:00 +16°C° 0 mm 2 m/S 735 mmHg 87%
    07:00 +18°C° 0 mm 3 m/S 735 mmHg 82%
    08:00 +20°C° 0 mm 3 m/S 735 mmHg 78%
    09:00 +21°C° 0,1 mm 3 m/S 735 mmHg 72%
    10:00 +22°C° 0,1 mm 3 m/S 735 mmHg 67%
    11:00 +23°C° 0,1 mm 4 m/S 734 mmHg 62%
    12:00 +23°C° 0,2 mm 4 m/S 734 mmHg 62%
    13:00 +25°C° 0,2 mm 4 m/S 734 mmHg 61%
    14:00 +25°C° 0,2 mm 4 m/S 733 mmHg 61%
    15:00 +25°C° 0,4 mm 4 m/S 733 mmHg 64%
    16:00 +23°C° 0,4 mm 4 m/S 733 mmHg 67%
    17:00 +23°C° 0,4 mm 4 m/S 732 mmHg 71%
    18:00 +21°C° 0,3 mm 4 m/S 732 mmHg 76%
    19:00 +20°C° 0,3 mm 3 m/S 732 mmHg 81%
    20:00 +19°C° 0,3 mm 3 m/S 732 mmHg 87%
    21:00 +18°C° 0 mm 3 m/S 732 mmHg 88%
    22:00 +17°C° 0 mm 3 m/S 732 mmHg 90%
    23:00 +16°C° 0 mm 3 m/S 732 mmHg 92%
    Mehr zeigen